Location: Bailey Volunteer Fire Department
(33.4359°N, 96.1680°W)
Time: 17:54:06
(UTC+00:00)

Cosmos 2058 Rocket - Pass Details

Date: 13 December 2025
Orbit: 603 x 633 km, 82.5° (Epoch: 13 January)

Event Time Altitude Azimuth Distance (km) Brightness Sun altitude
Exits shadow 12:17:41 10° 334° (NNW) 2,023 5.3 -12.8°
Reaches altitude 10° 12:17:47 10° 333° (NNW) 1,986 5.2 -12.8°
Maximum altitude 12:21:45 34° 269° (W) 1,019 3.7 -12.0°
Drops below altitude 10° 12:25:39 10° 204° (SSW) 1,957 5.6 -11.2°
Sets 12:28:00 0° 195° (SSW) 2,853 6.5 -10.8°
